Flag for Saudi Arabia Weather past 2 weeks in Makkah, Saudi Arabia

Now
93 °F

Sunny.


Feels Like: 103 °F
Forecast: 82 / 109 °F
Wind: No wind

Location: Mecca Airport

Current Time: Aug 21, 2014 at 6:22:53 AM

Latest Report: Aug 21, 2014 at 6:00 AM


Visibility: 10 mi

Pressure: 29.62 "Hg

Humidity: 53%

Dew point: 73 °F

Location of MakkahLocation

Historic Weather in Makkah — Graph

°F

Makkah temperature yesterday

Maximum temperature yesterday: 106 °F (at 1:00 PM)
Minimum temperature yesterday: 91 °F (at 6:00 AM)
Average temperature yesterday: 98 °F

Past Weeks' High & Low Weather Summary

 TemperatureHumidityPressure
High111 °F (Aug 14, 2:00 PM)56% (Aug 6, 8:00 AM)29.77 "Hg (Aug 6, 8:00 AM)
Low86 °F (Aug 8, 6:00 AM)14% (Aug 17, 1:00 PM)29.56 "Hg (Aug 17, 3:00 AM)
Average98 °F32%29.67 "Hg
* Reported Aug 6 4:00 AM — Aug 21 4:00 AM, Makkah, Weather by CustomWeather, © 2014

Note: Actual official high and low records may vary slightly from our data, if they occured in-between our weather recording intervals... More about our weather records

Advertising

Makkah weather history for previous 24 hours

 ConditionsComfort  
Time TempWeatherWind HumidityBarometerVisibility
4:00 AM
Aug 21
95 °FClear.No wind39%29.59 "Hg10 mi
3:00 AM95 °FClear.No wind50%29.59 "Hg10 mi
2:00 AM95 °FClear.No wind44%29.62 "Hg10 mi
1:00 AM97 °FClear.No wind47%29.62 "Hg10 mi
12:00 AM97 °FClear.No wind47%29.68 "Hg10 mi
11:00 PM
Aug 20
97 °FClear.No wind44%29.68 "Hg10 mi
10:00 PM97 °FClear.No wind50%29.68 "Hg10 mi
9:00 PM99 °FClear.No wind50%29.65 "Hg10 mi
8:00 PM99 °FPassing clouds.No wind50%29.65 "HgN/A
7:00 PM100 °FPassing clouds.No wind47%29.65 "HgN/A
6:00 PM102 °FPartly sunny.2 mph45%29.65 "HgN/A
5:00 PM104 °FPassing clouds.2 mph43%29.65 "HgN/A
4:00 PM106 °FSunny.3 mph38%29.65 "Hg10 mi
3:00 PM106 °FSunny.3 mph38%29.65 "Hg10 mi
2:00 PM106 °FSunny.5 mph38%29.68 "Hg10 mi
1:00 PM106 °FSunny.5 mph34%29.71 "Hg10 mi
12:00 PM104 °FSunny.5 mph38%29.74 "Hg10 mi
11:00 AM100 °FSunny.2 mph35%29.74 "Hg10 mi
10:00 AM99 °FSunny.5 mph37%29.77 "Hg10 mi
9:00 AM93 °FSunny.2 mph47%29.77 "Hg5 mi
8:00 AM91 °FSunny.2 mph41%29.74 "Hg5 mi
7:00 AM91 °FSunny.No wind38%29.74 "Hg5 mi
6:00 AM91 °FSunny.No wind34%29.71 "Hg10 mi
Weather by CustomWeather, © 2014

See weather overviewHow to use our weather pages